Iowa Falls, IA

3:52 AM CDT on March 26, 2017 (GMT -0500)
Iowa Falls Municipal

Weather History for KIFA - May, 2013

Change the Weather History Date:

Thursday, May 23, 2013

  Actual Average Record
Temperature  
Mean Temperature 58 °F -  
Max Temperature 65 °F 73 °F 90 °F (1972)
Min Temperature 50 °F 51 °F 27 °F (1963)
Degree Days  
Heating Degree Days 7    
Growing Degree Days 8 (Base 50)    
Moisture  
Dew Point 45 °F    
Average Humidity 66    
Maximum Humidity 94    
Minimum Humidity 35    
Precipitation  
Precipitation 0.02 in - - ()
Sea Level Pressure  
Sea Level Pressure 30.13 in    
Wind  
Wind Speed 12 mph (NNE)    
Max Wind Speed 16 mph    
Max Gust Speed 24 mph    
Visibility 10 miles    
Events      
Averages and records for this station are not official NWS values.
T = Trace of Precipitation, MM = Missing Value Source: NWS Daily Summary

Daily Weather History Graph

Daily Weather History Graph

Search for Another Location

Airport or City:

Trip Planner

Search our weather history database for the weather conditions in past years. The results will help you decide how hot, cold, wet, or windy it might be!

Date:

Astronomy

May. 23, 2013 Rise Set
Actual Time 5:43 AM CDT 8:36 PM CDT
Civil Twilight 5:10 AM CDT 9:09 PM CDT
Nautical Twilight 4:28 AM CDT 9:51 PM CDT
Astronomical Twilight 3:40 AM CDT 10:40 PM CDT
Moon 7:08 PM CDT (5/23) 4:31 AM CDT (5/23)
Length of Visible Light 15h 58m
Length of Day
14h 52m
Waxing Gibbous, 97% of the Moon is Illuminated
May 23
Waxing Gibbous
May 24
Full
May 31
Last Quarter
Jun 8
New
Jun 16
First Quarter

Hourly Weather History & Observations

Time (CDT) Temp. Dew Point Humidity Pressure Visibility Wind Dir Wind Speed Gust Speed Precip Events Conditions
12:15 AM 52.7 °F 51.1 °F 94% 29.89 in 5.0 mi NNW 11.5 mph 17.3 mph N/A   Drizzle
12:35 AM 52.7 °F 50.9 °F 94% 29.89 in 10.0 mi NNW 16.1 mph - N/A   Overcast
12:55 AM 52.7 °F 50.9 °F 94% 29.90 in 10.0 mi NNW 16.1 mph - N/A   Overcast
1:15 AM 52.7 °F 50.5 °F 92% 29.90 in 10.0 mi NNW 15.0 mph 18.4 mph N/A   Overcast
1:55 AM 52.5 °F 50.5 °F 93% 29.92 in 10.0 mi NNW 13.8 mph - 0.02 in   Overcast
2:15 AM 52.5 °F 50.2 °F 92% 29.92 in 10.0 mi NNW 15.0 mph - N/A   Overcast
2:35 AM 52.3 °F 50.0 °F 92% 29.93 in 10.0 mi North 11.5 mph 18.4 mph N/A   Overcast
2:55 AM 52.2 °F 49.5 °F 91% 29.94 in 10.0 mi North 16.1 mph 19.6 mph N/A   Overcast
3:15 AM 52.2 °F 49.3 °F 90% 29.94 in 10.0 mi North 10.4 mph 18.4 mph N/A   Overcast
3:35 AM 52.2 °F 49.1 °F 89% 29.95 in 10.0 mi North 12.7 mph 18.4 mph N/A   Overcast
3:55 AM 52.2 °F 49.1 °F 89% 29.95 in 10.0 mi North 12.7 mph 18.4 mph N/A   Overcast
4:15 AM 52.2 °F 49.1 °F 89% 29.96 in 10.0 mi North 13.8 mph 20.7 mph N/A   Overcast
4:35 AM 52.2 °F 49.1 °F 89% 29.98 in 10.0 mi North 12.7 mph 17.3 mph N/A   Overcast
4:55 AM 52.7 °F 49.1 °F 88% 29.99 in 10.0 mi North 12.7 mph 18.4 mph N/A   Overcast
5:15 AM 52.7 °F 48.7 °F 86% 30.01 in 10.0 mi North 11.5 mph - N/A   Overcast
5:35 AM 52.7 °F 48.9 °F 87% 30.01 in 10.0 mi North 10.4 mph - N/A   Overcast
5:55 AM 52.7 °F 48.9 °F 87% 30.03 in 10.0 mi North 11.5 mph 16.1 mph N/A   Overcast
6:15 AM 52.7 °F 48.7 °F 86% 30.04 in 10.0 mi North 13.8 mph 19.6 mph N/A   Overcast
6:35 AM 52.7 °F 48.4 °F 85% 30.06 in 10.0 mi North 12.7 mph 24.2 mph N/A   Overcast
6:55 AM 52.7 °F 47.8 °F 84% 30.07 in 10.0 mi North 15.0 mph 23.0 mph N/A   Overcast
7:15 AM 52.7 °F 47.8 °F 84% 30.07 in 10.0 mi North 12.7 mph 18.4 mph N/A   Overcast
7:35 AM 52.7 °F 47.7 °F 83% 30.09 in 10.0 mi North 16.1 mph - N/A   Overcast
7:55 AM 52.9 °F 46.8 °F 80% 30.09 in 10.0 mi NNE 13.8 mph 23.0 mph N/A   Overcast
8:15 AM 53.8 °F 47.3 °F 79% 30.11 in 10.0 mi NNE 12.7 mph - N/A   Scattered Clouds
8:35 AM 54.1 °F 46.6 °F 76% 30.12 in 10.0 mi NNE 13.8 mph - N/A   Scattered Clouds
8:55 AM 54.3 °F 46.6 °F 75% 30.14 in 10.0 mi North 13.8 mph 19.6 mph N/A   Mostly Cloudy
9:15 AM 55.4 °F 46.9 °F 73% 30.14 in 10.0 mi North 10.4 mph 16.1 mph N/A   Scattered Clouds
9:35 AM 55.8 °F 48.0 °F 75% 30.15 in 10.0 mi North 11.5 mph 18.4 mph N/A   Scattered Clouds
9:55 AM 56.7 °F 49.3 °F 76% 30.15 in 10.0 mi North 12.7 mph 17.3 mph N/A   Mostly Cloudy
10:15 AM 57.0 °F 49.1 °F 75% 30.16 in 10.0 mi North 12.7 mph 16.1 mph N/A   Scattered Clouds
10:35 AM 58.3 °F 49.1 °F 71% 30.16 in 10.0 mi North 11.5 mph - N/A   Scattered Clouds
10:55 AM 59.4 °F 49.8 °F 71% 30.17 in 10.0 mi NNE 11.5 mph 18.4 mph N/A   Scattered Clouds
11:15 AM 59.9 °F 50.0 °F 70% 30.18 in 10.0 mi North 11.5 mph 17.3 mph N/A   Mostly Cloudy
11:35 AM 60.8 °F 50.2 °F 68% 30.18 in 10.0 mi NNE 11.5 mph 16.1 mph N/A   Mostly Cloudy
11:55 AM 61.9 °F 49.5 °F 64% 30.18 in 10.0 mi North 11.5 mph 18.4 mph N/A   Scattered Clouds
12:15 PM 62.6 °F 46.6 °F 56% 30.18 in 10.0 mi North 10.4 mph - N/A   Clear
12:35 PM 63.3 °F 46.0 °F 53% 30.18 in 10.0 mi North 12.7 mph 19.6 mph N/A   Clear
12:55 PM 63.3 °F 45.3 °F 52% 30.18 in 10.0 mi North 15.0 mph 21.9 mph N/A   Clear
1:15 PM 63.9 °F 46.4 °F 53% 30.18 in 10.0 mi North 12.7 mph 19.6 mph N/A   Scattered Clouds
1:35 PM 64.0 °F 46.0 °F 52% 30.19 in 10.0 mi North 15.0 mph 19.6 mph N/A   Clear
1:55 PM 64.4 °F 45.9 °F 51% 30.19 in 10.0 mi NNE 13.8 mph 23.0 mph N/A   Scattered Clouds
2:15 PM 64.6 °F 44.4 °F 48% 30.19 in 10.0 mi North 12.7 mph 20.7 mph N/A   Scattered Clouds
2:35 PM 65.3 °F 41.9 °F 42% 30.19 in 10.0 mi NNE 10.4 mph 17.3 mph N/A   Scattered Clouds
2:55 PM 64.8 °F 42.6 °F 45% 30.20 in 10.0 mi North 13.8 mph 17.3 mph N/A   Scattered Clouds
3:15 PM 65.3 °F 43.2 °F 45% 30.21 in 10.0 mi North 9.2 mph - N/A   Scattered Clouds
3:35 PM 65.5 °F 42.6 °F 43% 30.21 in 10.0 mi North 12.7 mph 18.4 mph N/A   Scattered Clouds
3:55 PM 64.9 °F 43.5 °F 46% 30.21 in 10.0 mi North 10.4 mph - N/A   Scattered Clouds
4:15 PM 64.9 °F 41.2 °F 42% 30.21 in 10.0 mi North 9.2 mph 17.3 mph N/A   Scattered Clouds
4:35 PM 65.3 °F 42.1 °F 43% 30.21 in 10.0 mi NNE 9.2 mph 18.4 mph N/A   Clear
4:55 PM 65.8 °F 42.4 °F 43% 30.21 in 10.0 mi NE 10.4 mph 20.7 mph N/A   Clear
5:15 PM 65.1 °F 39.7 °F 39% 30.22 in 10.0 mi NNE 8.1 mph - N/A   Clear
5:35 PM 64.9 °F 38.5 °F 38% 30.22 in 10.0 mi North 9.2 mph - N/A   Clear
5:55 PM 64.9 °F 36.9 °F 35% 30.22 in 10.0 mi North 12.7 mph - N/A   Clear
6:15 PM 64.8 °F 38.8 °F 38% 30.23 in 10.0 mi NE 9.2 mph - N/A   Clear
6:35 PM 64.2 °F 38.3 °F 38% 30.23 in 10.0 mi ENE 6.9 mph 16.1 mph N/A   Clear
6:55 PM 63.7 °F 39.9 °F 42% 30.23 in 10.0 mi NNE 12.7 mph - N/A   Clear
7:15 PM 63.3 °F 37.9 °F 39% 30.24 in 10.0 mi NE 9.2 mph - N/A   Clear
7:35 PM 62.6 °F 36.1 °F 37% 30.24 in 10.0 mi NE 9.2 mph - N/A   Clear
7:55 PM 61.7 °F 38.5 °F 42% 30.24 in 10.0 mi NE 8.1 mph - N/A   Clear
8:15 PM 60.4 °F 36.9 °F 42% 30.25 in 10.0 mi ENE 8.1 mph - N/A   Clear
8:35 PM 59.0 °F 36.7 °F 43% 30.25 in 10.0 mi ENE 4.6 mph - N/A   Clear
8:55 PM 58.1 °F 37.8 °F 47% 30.25 in 10.0 mi ENE 3.5 mph - N/A   Clear
9:15 PM 56.3 °F 39.7 °F 54% 30.25 in 10.0 mi NE 4.6 mph - N/A   Clear
9:35 PM 55.2 °F 39.9 °F 56% 30.26 in 10.0 mi NE 3.5 mph - N/A   Clear
9:55 PM 54.0 °F 40.5 °F 60% 30.27 in 10.0 mi Calm Calm - N/A   Clear
10:15 PM 53.4 °F 40.5 °F 61% 30.28 in 10.0 mi NNE 4.6 mph - N/A   Clear
10:35 PM 52.7 °F 40.3 °F 63% 30.29 in 10.0 mi NE 3.5 mph - N/A   Clear
11:15 PM 52.0 °F 39.6 °F 63% 30.29 in 10.0 mi Calm Calm - N/A   Clear
11:35 PM 51.3 °F 39.7 °F 65% 30.30 in 10.0 mi NE 3.5 mph - N/A   Clear
11:55 PM 50.9 °F 39.7 °F 66% 30.30 in 10.0 mi NE 3.5 mph - N/A   Clear